Terug naar catalogus

DELTA 1 DEB

ActiefSSO
NORAD 7045·DEBRIS·🇺🇸 United States

Gelanceerd Nov 6, 1973 vanaf Vandenberg Space Force Base

Loading…

Volgende Passages (komende 24 uur)

TLE

VersSource: Space-Track

Epoch: Sep 13, 2026, 07:16 UTC

1  7045U 73086AM  26256.30344911 -.00000020  00000-0  23431-3 0  9995
2  7045 102.5955 276.1164 0076998 190.9899 182.4336 12.26156258358311

Volg DELTA 1 DEB in realtime met AllMySat

Download on the App Store